Time,TemperatureF,DewpointF,PressureIn,WindDirection,WindDirectionDegrees,WindSpeedMPH,WindSpeedGustMPH,Humidity,HourlyPrecipIn,Conditions,Clouds,dailyrainin,SoftwareType,DateUTC
2013-01-20 00:01:00,45.2,30.0,29.76,SW,232,8.0,23.0,55,0.00,,CLR,0.00,VWS V14.01,2013-01-20 05:01:00,
2013-01-20 00:02:00,45.3,30.1,29.77,SW,231,13.0,16.0,55,0.00,,CLR,0.00,VWS V14.01,2013-01-20 05:02:00,
2013-01-20 00:03:00,45.3,29.6,29.77,SW,232,10.0,16.0,54,0.00,,CLR,0.00,VWS V14.01,2013-01-20 05:03:00,
2013-01-20 00:07:00,45.1,29.9,29.76,WSW,242,10.0,16.0,55,0.00,,CLR,0.00,VWS V14.01,2013-01-20 05:07:00,
2013-01-20 00:12:00,44.9,30.2,29.76,SSW,213,12.0,17.0,56,0.00,,CLR,0.00,VWS V14.01,2013-01-20 05:12:00,
2013-01-20 00:17:00,45.1,30.4,29.76,WSW,239,10.0,17.0,56,0.00,,CLR,0.00,VWS V14.01,2013-01-20 05:17:00,
2013-01-20 00:22:00,45.0,30.7,29.76,SW,218,12.0,18.0,57,0.00,,CLR,0.00,VWS V14.01,2013-01-20 05:22:00,
2013-01-20 00:28:00,45.0,30.7,29.76,SW,229,9.0,18.0,57,0.00,,CLR,0.00,VWS V14.01,2013-01-20 05:28:00,
2013-01-20 00:33:00,44.7,30.9,29.75,WSW,246,10.0,11.0,58,0.00,,CLR,0.00,VWS V14.01,2013-01-20 05:33:00,
2013-01-20 00:38:00,44.7,30.9,29.75,West,270,10.0,14.0,58,0.00,,CLR,0.00,VWS V14.01,2013-01-20 05:38:00,
2013-01-20 00:43:00,44.6,30.8,29.75,WSW,238,10.0,15.0,58,0.00,,CLR,0.00,VWS V14.01,2013-01-20 05:43:00,
2013-01-20 00:48:00,44.8,31.4,29.75,WSW,249,14.0,17.0,59,0.00,,CLR,0.00,VWS V14.01,2013-01-20 05:48:00,
2013-01-20 00:53:00,44.9,31.5,29.75,SW,232,9.0,20.0,59,0.00,,CLR,0.00,VWS V14.01,2013-01-20 05:53:00,
2013-01-20 00:58:00,44.7,31.7,29.75,SW,229,12.0,20.0,60,0.00,,CLR,0.00,VWS V14.01,2013-01-20 05:58:00,
2013-01-20 01:03:00,44.7,31.7,29.75,SW,220,8.0,14.0,60,0.00,,FEW048,0.00,VWS V14.01,2013-01-20 06:03:00,
2013-01-20 01:08:00,44.4,31.8,29.75,WSW,238,7.0,15.0,61,0.00,,FEW048,0.00,VWS V14.01,2013-01-20 06:08:00,
2013-01-20 01:13:00,44.2,31.6,29.75,South,188,9.0,16.0,61,0.00,,FEW048,0.00,VWS V14.01,2013-01-20 06:13:00,
2013-01-20 01:18:00,44.4,31.8,29.74,WSW,246,8.0,16.0,61,0.00,,FEW048,0.00,VWS V14.01,2013-01-20 06:18:00,
2013-01-20 01:23:00,44.4,32.2,29.74,SW,236,6.0,19.0,62,0.00,,FEW048,0.00,VWS V14.01,2013-01-20 06:23:00,
2013-01-20 01:28:00,44.0,31.8,29.74,SSW,195,7.0,19.0,62,0.00,,FEW048,0.00,VWS V14.01,2013-01-20 06:28:00,
2013-01-20 01:34:00,44.1,32.3,29.74,SW,230,10.0,21.0,63,0.00,,FEW048,0.00,VWS V14.01,2013-01-20 06:34:00,
2013-01-20 01:39:00,44.0,32.2,29.74,WSW,239,7.0,21.0,63,0.00,,FEW048,0.00,VWS V14.01,2013-01-20 06:39:00,
2013-01-20 01:44:00,44.0,32.2,29.74,WSW,242,6.0,21.0,63,0.00,,FEW048,0.00,VWS V14.01,2013-01-20 06:44:00,
2013-01-20 01:49:00,43.9,32.5,29.74,SW,227,7.0,21.0,64,0.00,,FEW048,0.00,VWS V14.01,2013-01-20 06:49:00,
2013-01-20 01:54:00,44.0,32.6,29.74,SW,225,9.0,22.0,64,0.00,,FEW048,0.00,VWS V14.01,2013-01-20 06:54:00,
2013-01-20 01:59:00,43.7,32.7,29.73,WSW,249,11.0,22.0,65,0.00,,CLR,0.00,VWS V14.01,2013-01-20 06:59:00,
2013-01-20 02:04:00,43.7,32.7,29.73,SW,234,10.0,17.0,65,0.00,,CLR,0.00,VWS V14.01,2013-01-20 07:04:00,
2013-01-20 02:09:00,43.7,32.7,29.74,SW,234,9.0,17.0,65,0.00,,CLR,0.00,VWS V14.01,2013-01-20 07:09:00,
2013-01-20 02:14:00,43.7,32.7,29.73,WSW,247,11.0,17.0,65,0.00,,CLR,0.00,VWS V14.01,2013-01-20 07:14:00,
2013-01-20 02:20:00,43.4,32.8,29.73,SW,221,14.0,17.0,66,0.00,,CLR,0.00,VWS V14.01,2013-01-20 07:20:00,
2013-01-20 02:25:00,43.5,32.9,29.73,West,271,13.0,19.0,66,0.00,,CLR,0.00,VWS V14.01,2013-01-20 07:25:00,
2013-01-20 02:30:00,43.5,33.3,29.74,SW,225,7.0,23.0,67,0.00,,CLR,0.00,VWS V14.01,2013-01-20 07:30:00,
2013-01-20 02:35:00,43.3,33.1,29.74,WSW,254,10.0,13.0,67,0.00,,CLR,0.00,VWS V14.01,2013-01-20 07:35:00,
2013-01-20 02:40:00,43.1,33.3,29.74,WSW,246,14.0,15.0,68,0.00,,CLR,0.00,VWS V14.01,2013-01-20 07:40:00,
2013-01-20 02:45:00,43.3,33.5,29.75,WSW,238,13.0,17.0,68,0.00,,CLR,0.00,VWS V14.01,2013-01-20 07:45:00,
2013-01-20 02:50:00,43.5,33.7,29.75,WSW,253,12.0,17.0,68,0.00,,CLR,0.00,VWS V14.01,2013-01-20 07:50:00,
2013-01-20 02:55:00,43.4,33.6,29.75,WSW,253,11.0,17.0,68,0.00,,CLR,0.00,VWS V14.01,2013-01-20 07:55:00,
2013-01-20 03:01:00,43.6,34.1,29.75,WSW,250,16.0,22.0,69,0.00,,CLR,0.00,VWS V14.01,2013-01-20 08:01:00,
2013-01-20 03:06:00,43.8,33.9,29.76,WSW,254,19.0,25.0,68,0.00,,CLR,0.00,VWS V14.01,2013-01-20 08:06:00,
2013-01-20 03:11:00,44.0,34.1,29.76,West,268,18.0,32.0,68,0.00,,CLR,0.00,VWS V14.01,2013-01-20 08:11:00,
2013-01-20 03:17:00,43.6,34.1,29.76,WSW,257,13.0,32.0,69,0.00,,CLR,0.00,VWS V14.01,2013-01-20 08:17:00,
2013-01-20 03:22:00,43.6,34.5,29.77,West,280,11.0,32.0,70,0.00,,CLR,0.00,VWS V14.01,2013-01-20 08:22:00,
2013-01-20 03:27:00,43.5,34.4,29.76,WSW,257,11.0,32.0,70,0.00,,CLR,0.00,VWS V14.01,2013-01-20 08:27:00,
2013-01-20 03:32:00,43.3,34.2,29.77,WSW,246,10.0,14.0,70,0.00,,CLR,0.00,VWS V14.01,2013-01-20 08:32:00,
2013-01-20 03:37:00,43.2,34.1,29.77,WSW,250,15.0,25.0,70,0.00,,CLR,0.00,VWS V14.01,2013-01-20 08:37:00,
2013-01-20 03:42:00,42.9,33.8,29.77,WSW,256,15.0,26.0,70,0.00,,CLR,0.00,VWS V14.01,2013-01-20 08:42:00,
2013-01-20 03:47:00,42.5,33.8,29.77,WSW,255,16.0,26.0,71,0.00,,CLR,0.00,VWS V14.01,2013-01-20 08:47:00,
2013-01-20 03:52:00,42.4,31.5,29.77,West,267,18.0,30.0,65,0.00,,CLR,0.00,VWS V14.01,2013-01-20 08:52:00,
2013-01-20 03:57:00,42.1,31.6,29.78,West,263,17.0,33.0,66,0.00,,CLR,0.00,VWS V14.01,2013-01-20 08:57:00,
2013-01-20 04:02:00,41.5,31.7,29.78,West,261,13.0,15.0,68,0.00,,SCT037,0.00,VWS V14.01,2013-01-20 09:02:00,
2013-01-20 04:07:00,41.5,28.7,29.78,WSW,252,22.0,32.0,60,0.00,,SCT037,0.00,VWS V14.01,2013-01-20 09:07:00,
2013-01-20 04:12:00,41.3,27.2,29.78,WNW,282,15.0,32.0,57,0.00,,SCT037,0.00,VWS V14.01,2013-01-20 09:12:00,
2013-01-20 04:17:00,40.6,23.4,29.78,West,275,29.0,34.0,50,0.00,,SCT037,0.00,VWS V14.01,2013-01-20 09:17:00,
2013-01-20 04:22:00,40.3,20.7,29.79,WSW,245,19.0,34.0,45,0.00,,SCT037,0.00,VWS V14.01,2013-01-20 09:22:00,
2013-01-20 04:27:00,39.8,21.7,29.79,West,267,17.0,34.0,48,0.00,,SCT037,0.00,VWS V14.01,2013-01-20 09:27:00,
2013-01-20 04:32:00,39.7,22.6,29.79,West,275,18.0,22.0,50,0.00,,SCT037,0.00,VWS V14.01,2013-01-20 09:32:00,
2013-01-20 04:38:00,39.2,23.1,29.80,West,274,12.0,22.0,52,0.00,,SCT037,0.00,VWS V14.01,2013-01-20 09:38:00,
2013-01-20 04:43:00,38.9,23.7,29.80,West,275,18.0,22.0,54,0.00,,SCT037,0.00,VWS V14.01,2013-01-20 09:43:00,
2013-01-20 04:48:00,38.7,24.4,29.81,West,259,13.0,22.0,56,0.00,,SCT037,0.00,VWS V14.01,2013-01-20 09:48:00,
2013-01-20 04:53:00,38.1,24.6,29.80,WSW,256,11.0,23.0,58,0.00,,SCT037,0.00,VWS V14.01,2013-01-20 09:53:00,
2013-01-20 04:58:00,38.2,24.3,29.81,WNW,284,11.0,26.0,57,0.00,,SCT037,0.00,VWS V14.01,2013-01-20 09:58:00,
2013-01-20 05:03:00,38.0,23.7,29.82,West,267,12.0,22.0,56,0.00,,SCT045,0.00,VWS V14.01,2013-01-20 10:03:00,
2013-01-20 05:08:00,37.8,23.5,29.81,West,275,17.0,23.0,56,0.00,,SCT045,0.00,VWS V14.01,2013-01-20 10:08:00,
2013-01-20 05:13:00,37.5,23.2,29.82,West,273,18.0,23.0,56,0.00,,SCT045,0.00,VWS V14.01,2013-01-20 10:13:00,
2013-01-20 05:18:00,37.1,22.9,29.83,West,271,13.0,28.0,56,0.00,,SCT045,0.00,VWS V14.01,2013-01-20 10:18:00,
2013-01-20 05:23:00,36.7,21.6,29.83,West,263,15.0,28.0,54,0.00,,SCT045,0.00,VWS V14.01,2013-01-20 10:23:00,
2013-01-20 05:28:00,36.4,20.9,29.84,West,269,23.0,28.0,53,0.00,,SCT045,0.00,VWS V14.01,2013-01-20 10:28:00,
2013-01-20 05:33:00,36.0,20.1,29.84,West,281,14.0,21.0,52,0.00,,SCT045,0.00,VWS V14.01,2013-01-20 10:33:00,
2013-01-20 05:38:00,35.6,20.6,29.84,West,268,5.0,24.0,54,0.00,,SCT045,0.00,VWS V14.01,2013-01-20 10:38:00,
2013-01-20 05:44:00,35.2,20.7,29.85,WSW,255,13.0,24.0,55,0.00,,SCT045,0.00,VWS V14.01,2013-01-20 10:44:00,
2013-01-20 05:49:00,35.0,20.5,29.85,WNW,302,18.0,27.0,55,0.00,,SCT045,0.00,VWS V14.01,2013-01-20 10:49:00,
2013-01-20 05:54:00,34.7,20.6,29.86,West,278,21.0,27.0,56,0.00,,SCT045,0.00,VWS V14.01,2013-01-20 10:54:00,
2013-01-20 05:59:00,34.5,20.4,29.86,WNW,284,18.0,29.0,56,0.00,,SCT045,0.00,VWS V14.01,2013-01-20 10:59:00,
2013-01-20 06:04:00,34.5,20.9,29.86,West,271,14.0,25.0,57,0.00,,FEW043,0.00,VWS V14.01,2013-01-20 11:04:00,
2013-01-20 06:09:00,34.4,20.8,29.87,West,279,12.0,25.0,57,0.00,,FEW043,0.00,VWS V14.01,2013-01-20 11:09:00,
2013-01-20 06:14:00,34.2,21.4,29.88,NW,323,11.0,25.0,59,0.00,,FEW043,0.00,VWS V14.01,2013-01-20 11:14:00,
2013-01-20 06:19:00,33.1,20.4,29.89,WSW,246,7.0,36.0,59,0.00,,FEW043,0.00,VWS V14.01,2013-01-20 11:19:00,
2013-01-20 06:24:00,32.4,20.1,29.89,WSW,252,10.0,36.0,60,0.00,,FEW043,0.00,VWS V14.01,2013-01-20 11:24:00,
2013-01-20 06:29:00,32.1,20.2,29.89,West,277,19.0,36.0,61,0.00,,FEW043,0.00,VWS V14.01,2013-01-20 11:29:00,
2013-01-20 06:34:00,31.8,19.9,29.90,West,275,14.0,23.0,61,0.00,,FEW043,0.00,VWS V14.01,2013-01-20 11:34:00,
2013-01-20 06:39:00,31.4,19.9,29.91,West,277,13.0,23.0,62,0.00,,FEW043,0.00,VWS V14.01,2013-01-20 11:39:00,
2013-01-20 06:44:00,30.6,18.4,29.91,WNW,294,8.0,23.0,60,0.00,,FEW043,0.00,VWS V14.01,2013-01-20 11:44:00,
2013-01-20 06:50:00,30.0,17.8,29.92,WSW,244,13.0,23.0,60,0.00,,FEW043,0.00,VWS V14.01,2013-01-20 11:50:00,
2013-01-20 06:55:00,29.7,17.5,29.93,West,260,12.0,23.0,60,0.00,,FEW043,0.00,VWS V14.01,2013-01-20 11:55:00,
2013-01-20 07:00:00,29.4,17.6,29.93,West,263,14.0,23.0,61,0.00,,BKN045,0.00,VWS V14.01,2013-01-20 12:00:00,
2013-01-20 07:05:00,29.2,17.8,29.94,West,268,8.0,21.0,62,0.00,,BKN045,0.00,VWS V14.01,2013-01-20 12:05:00,
2013-01-20 07:10:00,29.0,18.0,29.95,West,267,9.0,21.0,63,0.00,,BKN045,0.00,VWS V14.01,2013-01-20 12:10:00,
2013-01-20 07:15:00,28.9,18.3,29.95,West,277,10.0,21.0,64,0.00,,BKN045,0.00,VWS V14.01,2013-01-20 12:15:00,
2013-01-20 07:20:00,28.4,18.1,29.96,WNW,282,3.0,21.0,65,0.00,,BKN045,0.00,VWS V14.01,2013-01-20 12:20:00,
2013-01-20 07:26:00,28.0,18.5,29.96,West,279,8.0,21.0,67,0.00,,BKN045,0.00,VWS V14.01,2013-01-20 12:26:00,
2013-01-20 07:31:00,27.7,18.2,29.96,NW,317,7.0,21.0,67,0.00,,BKN045,0.00,VWS V14.01,2013-01-20 12:31:00,
2013-01-20 07:36:00,27.5,18.0,29.97,West,261,9.0,15.0,67,0.00,,BKN045,0.00,VWS V14.01,2013-01-20 12:36:00,
2013-01-20 07:41:00,27.4,18.2,29.97,West,281,6.0,15.0,68,0.00,,BKN045,0.00,VWS V14.01,2013-01-20 12:41:00,
2013-01-20 07:46:00,27.4,17.9,29.98,West,279,8.0,21.0,67,0.00,,BKN045,0.00,VWS V14.01,2013-01-20 12:46:00,
2013-01-20 07:51:00,27.3,18.1,29.98,WNW,292,5.0,21.0,68,0.00,,BKN045,0.00,VWS V14.01,2013-01-20 12:51:00,
2013-01-20 07:57:00,27.3,17.8,29.98,West,279,6.0,21.0,67,0.00,,BKN045,0.00,VWS V14.01,2013-01-20 12:57:00,
2013-01-20 08:02:00,27.2,17.4,29.99,West,262,11.0,18.0,66,0.00,,FEW040,0.00,VWS V14.01,2013-01-20 13:02:00,
2013-01-20 08:07:00,27.0,17.2,29.99,West,273,14.0,21.0,66,0.00,,FEW040,0.00,VWS V14.01,2013-01-20 13:07:00,
2013-01-20 08:12:00,26.8,16.6,30.00,WNW,294,9.0,21.0,65,0.00,,FEW040,0.00,VWS V14.01,2013-01-20 13:12:00,
2013-01-20 08:17:00,26.8,16.6,30.00,WNW,285,16.0,21.0,65,0.00,,FEW040,0.00,VWS V14.01,2013-01-20 13:17:00,
2013-01-20 08:22:00,26.7,16.2,30.00,West,267,11.0,21.0,64,0.00,,FEW040,0.00,VWS V14.01,2013-01-20 13:22:00,
2013-01-20 08:27:00,26.7,15.8,30.00,West,269,12.0,21.0,63,0.00,,FEW040,0.00,VWS V14.01,2013-01-20 13:27:00,
2013-01-20 08:32:00,26.9,16.0,30.01,West,274,12.0,12.0,63,0.00,,FEW040,0.00,VWS V14.01,2013-01-20 13:32:00,
2013-01-20 08:37:00,27.1,15.8,30.01,West,269,8.0,17.0,62,0.00,,FEW040,0.00,VWS V14.01,2013-01-20 13:37:00,
2013-01-20 08:43:00,27.1,15.4,30.02,WNW,283,13.0,19.0,61,0.00,,FEW040,0.00,VWS V14.01,2013-01-20 13:43:00,
2013-01-20 08:48:00,26.9,15.3,30.02,WSW,253,13.0,19.0,61,0.00,,FEW040,0.00,VWS V14.01,2013-01-20 13:48:00,
2013-01-20 08:53:00,26.6,15.4,30.03,West,267,10.0,19.0,62,0.00,,FEW040,0.00,VWS V14.01,2013-01-20 13:53:00,
2013-01-20 08:58:00,26.4,15.5,30.03,West,277,16.0,20.0,63,0.00,,FEW040,0.00,VWS V14.01,2013-01-20 13:58:00,
2013-01-20 09:03:00,26.3,16.1,30.03,West,276,10.0,18.0,65,0.00,,BKN032,0.00,VWS V14.01,2013-01-20 14:03:00,
2013-01-20 09:08:00,26.3,16.5,30.04,West,267,12.0,20.0,66,0.00,,BKN032,0.00,VWS V14.01,2013-01-20 14:08:00,
2013-01-20 09:13:00,26.4,16.9,30.04,WNW,290,5.0,20.0,67,0.00,,BKN032,0.00,VWS V14.01,2013-01-20 14:13:00,
2013-01-20 09:18:00,26.1,16.7,30.05,West,271,12.0,20.0,67,0.00,,BKN032,0.00,VWS V14.01,2013-01-20 14:18:00,
2013-01-20 09:23:00,25.8,16.7,30.05,West,277,4.0,20.0,68,0.00,,BKN032,0.00,VWS V14.01,2013-01-20 14:23:00,
2013-01-20 09:28:00,25.6,16.5,30.06,WSW,246,8.0,20.0,68,0.00,,BKN032,0.00,VWS V14.01,2013-01-20 14:28:00,
2013-01-20 09:34:00,25.4,16.3,30.06,NW,319,11.0,13.0,68,0.00,,BKN032,0.00,VWS V14.01,2013-01-20 14:34:00,
2013-01-20 09:39:00,25.3,16.2,30.07,West,261,7.0,16.0,68,0.00,,BKN032,0.00,VWS V14.01,2013-01-20 14:39:00,
2013-01-20 09:44:00,25.1,15.4,30.08,NW,312,2.0,19.0,66,0.00,,BKN032,0.00,VWS V14.01,2013-01-20 14:44:00,
2013-01-20 09:49:00,25.0,15.6,30.08,West,263,15.0,19.0,67,0.00,,BKN032,0.00,VWS V14.01,2013-01-20 14:49:00,
2013-01-20 09:54:00,24.8,15.1,30.08,West,269,7.0,24.0,66,0.00,,BKN032,0.00,VWS V14.01,2013-01-20 14:54:00,
2013-01-20 09:59:00,24.6,15.2,30.08,West,271,8.0,24.0,67,0.00,,BKN032,0.00,VWS V14.01,2013-01-20 14:59:00,
2013-01-20 10:04:00,24.9,15.5,30.09,WNW,288,4.0,11.0,67,0.00,,SCT034,0.00,VWS V14.01,2013-01-20 15:04:00,
2013-01-20 10:09:00,24.8,15.1,30.09,West,261,9.0,18.0,66,0.00,,SCT034,0.00,VWS V14.01,2013-01-20 15:09:00,
2013-01-20 10:14:00,24.9,15.2,30.10,North,355,6.0,18.0,66,0.00,,SCT034,0.00,VWS V14.01,2013-01-20 15:14:00,
2013-01-20 10:19:00,24.7,15.0,30.10,West,281,2.0,18.0,66,0.00,,SCT034,0.00,VWS V14.01,2013-01-20 15:19:00,
2013-01-20 10:24:00,24.5,14.8,30.11,West,269,7.0,18.0,66,0.00,,SCT034,0.00,VWS V14.01,2013-01-20 15:24:00,
2013-01-20 10:29:00,24.2,14.5,30.11,WSW,251,0.0,18.0,66,0.00,,SCT034,0.00,VWS V14.01,2013-01-20 15:29:00,
2013-01-20 10:35:00,24.3,14.9,30.11,NW,304,8.0,12.0,67,0.00,,SCT034,0.00,VWS V14.01,2013-01-20 15:35:00,
2013-01-20 10:40:00,23.9,14.2,30.12,West,275,10.0,24.0,66,0.00,,SCT034,0.00,VWS V14.01,2013-01-20 15:40:00,
2013-01-20 10:45:00,25.1,15.0,30.12,WNW,287,8.0,24.0,65,0.00,,SCT034,0.00,VWS V14.01,2013-01-20 15:45:00,
2013-01-20 10:50:00,25.6,14.8,30.12,NW,325,3.0,24.0,63,0.00,,SCT034,0.00,VWS V14.01,2013-01-20 15:50:00,
2013-01-20 10:55:00,24.7,13.9,30.13,WNW,285,6.0,24.0,63,0.00,,SCT034,0.00,VWS V14.01,2013-01-20 15:55:00,
2013-01-20 11:00:00,24.3,13.5,30.13,West,263,11.0,24.0,63,0.00,,OVC034,0.00,VWS V14.01,2013-01-20 16:00:00,
2013-01-20 11:05:00,24.0,13.6,30.13,NW,307,6.0,18.0,64,0.00,,OVC034,0.00,VWS V14.01,2013-01-20 16:05:00,
2013-01-20 11:10:00,23.8,12.7,30.13,West,275,10.0,18.0,62,0.00,,OVC034,0.00,VWS V14.01,2013-01-20 16:10:00,
2013-01-20 11:15:00,24.0,12.5,30.13,WNW,290,9.0,18.0,61,0.00,,OVC034,0.00,VWS V14.01,2013-01-20 16:15:00,
2013-01-20 11:20:00,24.5,12.6,30.13,NNW,337,10.0,18.0,60,0.00,,OVC034,0.00,VWS V14.01,2013-01-20 16:20:00,
2013-01-20 11:25:00,24.3,12.8,30.14,West,278,7.0,18.0,61,0.00,,OVC034,0.00,VWS V14.01,2013-01-20 16:25:00,
2013-01-20 11:30:00,24.0,14.0,30.14,NW,315,4.0,18.0,65,0.00,,OVC034,0.00,VWS V14.01,2013-01-20 16:30:00,
2013-01-20 11:35:00,23.5,13.8,30.14,West,278,2.0,8.0,66,0.00,,OVC034,0.00,VWS V14.01,2013-01-20 16:35:00,
2013-01-20 11:40:00,23.4,14.1,30.14,NE,53,1.0,12.0,67,0.00,,OVC034,0.00,VWS V14.01,2013-01-20 16:40:00,
2013-01-20 11:45:00,23.1,12.4,30.14,SSW,209,2.0,13.0,63,0.00,,OVC034,0.00,VWS V14.01,2013-01-20 16:45:00,
2013-01-20 11:50:00,22.9,11.1,30.14,WSW,256,7.0,15.0,60,0.00,,OVC034,0.00,VWS V14.01,2013-01-20 16:50:00,
2013-01-20 11:55:00,23.9,12.1,30.13,West,274,10.0,16.0,60,0.00,,OVC034,0.00,VWS V14.01,2013-01-20 16:55:00,
2013-01-20 12:00:00,23.8,11.6,30.14,West,281,7.0,18.0,59,0.00,,,0.00,VWS V14.01,2013-01-20 17:00:00,
2013-01-20 12:06:00,23.7,11.5,30.14,WNW,285,8.0,16.0,59,0.00,,,0.00,VWS V14.01,2013-01-20 17:06:00,
2013-01-20 12:11:00,23.4,11.6,30.14,WNW,300,14.0,17.0,60,0.00,,,0.00,VWS V14.01,2013-01-20 17:11:00,
2013-01-20 12:16:00,23.1,11.7,30.14,SW,233,7.0,17.0,61,0.00,,,0.00,VWS V14.01,2013-01-20 17:16:00,
2013-01-20 12:21:00,23.4,12.7,30.14,WNW,294,6.0,17.0,63,0.00,,,0.00,VWS V14.01,2013-01-20 17:21:00,
2013-01-20 12:26:00,23.6,11.8,30.14,West,281,11.0,17.0,60,0.00,,,0.00,VWS V14.01,2013-01-20 17:26:00,
2013-01-20 12:31:00,23.7,11.5,30.14,West,261,12.0,17.0,59,0.00,,,0.00,VWS V14.01,2013-01-20 17:31:00,
2013-01-20 12:36:00,24.3,12.4,30.14,West,281,8.0,12.0,60,0.00,,,0.00,VWS V14.01,2013-01-20 17:36:00,
2013-01-20 12:41:00,23.9,12.1,30.14,West,273,9.0,12.0,60,0.00,,,0.00,VWS V14.01,2013-01-20 17:41:00,
2013-01-20 12:46:00,23.8,12.0,30.14,NW,312,8.0,12.0,60,0.00,,,0.00,VWS V14.01,2013-01-20 17:46:00,
2013-01-20 12:51:00,23.4,12.3,30.14,NNW,329,5.0,13.0,62,0.00,,,0.00,VWS V14.01,2013-01-20 17:51:00,
2013-01-20 12:56:00,23.5,12.4,30.14,WNW,292,5.0,13.0,62,0.00,,,0.00,VWS V14.01,2013-01-20 17:56:00,
2013-01-20 13:01:00,23.1,11.7,30.14,West,266,7.0,13.0,61,0.00,,OVC036,0.00,VWS V14.01,2013-01-20 18:01:00,
2013-01-20 13:06:00,23.5,12.4,30.14,WNW,293,11.0,18.0,62,0.00,,OVC036,0.00,VWS V14.01,2013-01-20 18:06:00,
2013-01-20 13:11:00,24.1,13.0,30.14,West,269,13.0,18.0,62,0.00,,OVC036,0.00,VWS V14.01,2013-01-20 18:11:00,
2013-01-20 13:16:00,23.4,11.9,30.14,WSW,249,9.0,18.0,61,0.00,,OVC036,0.00,VWS V14.01,2013-01-20 18:16:00,
2013-01-20 13:21:00,23.1,12.4,30.14,WNW,293,6.0,18.0,63,0.00,,OVC036,0.00,VWS V14.01,2013-01-20 18:21:00,
2013-01-20 13:26:00,23.2,12.5,30.14,West,267,7.0,18.0,63,0.00,,OVC036,0.00,VWS V14.01,2013-01-20 18:26:00,
2013-01-20 13:31:00,23.1,12.4,30.14,SSW,210,4.0,18.0,63,0.00,,OVC036,0.00,VWS V14.01,2013-01-20 18:31:00,
2013-01-20 13:36:00,23.6,13.2,30.14,WNW,285,5.0,11.0,64,0.00,,OVC036,0.00,VWS V14.01,2013-01-20 18:36:00,
2013-01-20 13:41:00,23.7,13.0,30.14,West,269,11.0,12.0,63,0.00,,OVC036,0.00,VWS V14.01,2013-01-20 18:41:00,
2013-01-20 13:46:00,23.4,13.0,30.14,West,264,7.0,15.0,64,0.00,,OVC036,0.00,VWS V14.01,2013-01-20 18:46:00,
2013-01-20 13:51:00,23.3,13.3,30.15,WSW,253,8.0,15.0,65,0.00,,OVC036,0.00,VWS V14.01,2013-01-20 18:51:00,
2013-01-20 13:57:00,23.3,13.3,30.14,NW,306,4.0,15.0,65,0.00,,OVC036,0.00,VWS V14.01,2013-01-20 18:57:00,
2013-01-20 14:02:00,23.4,13.4,30.14,WNW,286,10.0,10.0,65,0.00,,OVC032,0.00,VWS V14.01,2013-01-20 19:02:00,
2013-01-20 14:07:00,23.2,13.2,30.14,SSW,202,3.0,12.0,65,0.00,,OVC032,0.00,VWS V14.01,2013-01-20 19:07:00,
2013-01-20 14:12:00,23.4,13.7,30.14,WSW,244,6.0,13.0,66,0.00,,OVC032,0.00,VWS V14.01,2013-01-20 19:12:00,
2013-01-20 14:17:00,24.0,13.6,30.14,West,271,9.0,13.0,64,0.00,,OVC032,0.00,VWS V14.01,2013-01-20 19:17:00,
2013-01-20 14:22:00,24.0,12.9,30.14,WNW,292,10.0,13.0,62,0.00,,OVC032,0.00,VWS V14.01,2013-01-20 19:22:00,
2013-01-20 14:27:00,23.8,12.7,30.14,WNW,293,4.0,13.0,62,0.00,,OVC032,0.00,VWS V14.01,2013-01-20 19:27:00,
2013-01-20 14:32:00,23.6,12.1,30.14,WNW,286,14.0,14.0,61,0.00,,OVC032,0.00,VWS V14.01,2013-01-20 19:32:00,
2013-01-20 14:37:00,23.9,12.8,30.14,West,274,13.0,14.0,62,0.00,,OVC032,0.00,VWS V14.01,2013-01-20 19:37:00,
2013-01-20 14:42:00,24.1,11.9,30.14,WNW,284,11.0,14.0,59,0.00,,OVC032,0.00,VWS V14.01,2013-01-20 19:42:00,
2013-01-20 14:47:00,24.2,12.3,30.14,West,271,10.0,15.0,60,0.00,,OVC032,0.00,VWS V14.01,2013-01-20 19:47:00,
2013-01-20 14:52:00,24.1,12.6,30.14,West,262,12.0,15.0,61,0.00,,OVC032,0.00,VWS V14.01,2013-01-20 19:52:00,
2013-01-20 14:57:00,23.9,11.7,30.14,WSW,257,8.0,15.0,59,0.00,,OVC032,0.00,VWS V14.01,2013-01-20 19:57:00,
2013-01-20 15:02:00,23.9,12.1,30.14,West,259,8.0,12.0,60,0.00,,BKN030,0.00,VWS V14.01,2013-01-20 20:02:00,
2013-01-20 15:07:00,23.4,12.3,30.14,WSW,251,9.0,13.0,62,0.00,,BKN030,0.00,VWS V14.01,2013-01-20 20:07:00,
2013-01-20 15:12:00,23.4,12.3,30.13,West,269,7.0,13.0,62,0.00,,BKN030,0.00,VWS V14.01,2013-01-20 20:12:00,
2013-01-20 15:17:00,23.6,13.2,30.14,West,265,7.0,13.0,64,0.00,,BKN030,0.00,VWS V14.01,2013-01-20 20:17:00,
2013-01-20 15:22:00,24.2,13.4,30.14,West,263,12.0,15.0,63,0.00,,BKN030,0.00,VWS V14.01,2013-01-20 20:22:00,
2013-01-20 15:27:00,23.8,12.3,30.14,West,269,7.0,16.0,61,0.00,,BKN030,0.00,VWS V14.01,2013-01-20 20:27:00,
2013-01-20 15:32:00,23.3,12.2,30.15,West,274,6.0,10.0,62,0.00,,BKN030,0.00,VWS V14.01,2013-01-20 20:32:00,
2013-01-20 15:38:00,24.0,13.2,30.14,NW,304,4.0,10.0,63,0.00,,BKN030,0.00,VWS V14.01,2013-01-20 20:38:00,
2013-01-20 15:43:00,23.8,12.7,30.14,WSW,253,9.0,12.0,62,0.00,,BKN030,0.00,VWS V14.01,2013-01-20 20:43:00,
2013-01-20 15:48:00,23.3,12.9,30.15,West,273,8.0,12.0,64,0.00,,BKN030,0.00,VWS V14.01,2013-01-20 20:48:00,
2013-01-20 15:53:00,23.5,13.1,30.15,West,259,9.0,15.0,64,0.00,,BKN030,0.00,VWS V14.01,2013-01-20 20:53:00,
2013-01-20 15:58:00,23.5,12.0,30.15,West,269,7.0,15.0,61,0.00,,BKN030,0.00,VWS V14.01,2013-01-20 20:58:00,
2013-01-20 16:03:00,23.6,12.9,30.16,West,259,8.0,11.0,63,0.00,,FEW032,0.00,VWS V14.01,2013-01-20 21:03:00,
2013-01-20 16:08:00,23.6,13.2,30.16,West,268,10.0,14.0,64,0.00,,FEW032,0.00,VWS V14.01,2013-01-20 21:08:00,
2013-01-20 16:13:00,23.8,12.7,30.16,West,264,7.0,14.0,62,0.00,,FEW032,0.00,VWS V14.01,2013-01-20 21:13:00,
2013-01-20 16:19:00,24.2,13.1,30.15,WSW,240,10.0,14.0,62,0.00,,FEW032,0.00,VWS V14.01,2013-01-20 21:19:00,
2013-01-20 16:24:00,24.1,13.0,30.16,WSW,252,7.0,14.0,62,0.00,,FEW032,0.00,VWS V14.01,2013-01-20 21:24:00,
2013-01-20 16:29:00,24.1,13.7,30.17,West,263,9.0,14.0,64,0.00,,FEW032,0.00,VWS V14.01,2013-01-20 21:29:00,
2013-01-20 16:34:00,23.9,12.8,30.17,WSW,257,10.0,15.0,62,0.00,,FEW032,0.00,VWS V14.01,2013-01-20 21:34:00,
2013-01-20 16:39:00,23.7,12.6,30.17,West,271,11.0,15.0,62,0.00,,FEW032,0.00,VWS V14.01,2013-01-20 21:39:00,
2013-01-20 16:44:00,23.6,12.9,30.17,NW,306,14.0,15.0,63,0.00,,FEW032,0.00,VWS V14.01,2013-01-20 21:44:00,
2013-01-20 16:50:00,23.3,12.9,30.17,WNW,286,10.0,15.0,64,0.00,,FEW032,0.00,VWS V14.01,2013-01-20 21:50:00,
2013-01-20 16:55:00,23.2,12.8,30.17,West,271,6.0,15.0,64,0.00,,FEW032,0.00,VWS V14.01,2013-01-20 21:55:00,
2013-01-20 17:00:00,23.2,12.8,30.18,NW,304,5.0,15.0,64,0.00,,BKN032,0.00,VWS V14.01,2013-01-20 22:00:00,
2013-01-20 17:05:00,23.1,12.8,30.17,WSW,257,10.0,10.0,64,0.00,,BKN032,0.00,VWS V14.01,2013-01-20 22:05:00,
2013-01-20 17:11:00,23.2,12.8,30.17,WNW,302,8.0,13.0,64,0.00,,BKN032,0.00,VWS V14.01,2013-01-20 22:11:00,
2013-01-20 17:16:00,23.1,12.4,30.17,West,277,7.0,13.0,63,0.00,,BKN032,0.00,VWS V14.01,2013-01-20 22:16:00,
2013-01-20 17:21:00,23.1,12.8,30.17,West,270,8.0,13.0,64,0.00,,BKN032,0.00,VWS V14.01,2013-01-20 22:21:00,
2013-01-20 17:27:00,23.0,12.6,30.17,West,260,8.0,13.0,64,0.00,,BKN032,0.00,VWS V14.01,2013-01-20 22:27:00,
2013-01-20 17:32:00,22.9,12.9,30.17,West,271,6.0,7.0,65,0.00,,BKN032,0.00,VWS V14.01,2013-01-20 22:32:00,
2013-01-20 17:38:00,22.9,12.9,30.17,West,259,6.0,10.0,65,0.00,,BKN032,0.00,VWS V14.01,2013-01-20 22:38:00,
2013-01-20 17:43:00,22.7,12.7,30.17,WNW,283,3.0,10.0,65,0.00,,BKN032,0.00,VWS V14.01,2013-01-20 22:43:00,
2013-01-20 17:48:00,22.7,12.4,30.17,West,260,9.0,12.0,64,0.00,,BKN032,0.00,VWS V14.01,2013-01-20 22:48:00,
2013-01-20 17:53:00,22.7,12.0,30.17,West,259,7.0,12.0,63,0.00,,BKN032,0.00,VWS V14.01,2013-01-20 22:53:00,
2013-01-20 17:59:00,22.7,12.7,30.17,WNW,283,8.0,12.0,65,0.00,,BKN032,0.00,VWS V14.01,2013-01-20 22:59:00,
2013-01-20 18:04:00,22.7,12.7,30.17,West,268,4.0,7.0,65,0.00,,BKN034,0.00,VWS V14.01,2013-01-20 23:04:00,
2013-01-20 18:09:00,22.7,12.7,30.17,WSW,254,6.0,12.0,65,0.00,,BKN034,0.00,VWS V14.01,2013-01-20 23:09:00,
2013-01-20 18:14:00,22.6,12.6,30.18,West,280,4.0,12.0,65,0.00,,BKN034,0.00,VWS V14.01,2013-01-20 23:14:00,
2013-01-20 18:19:00,22.7,12.4,30.18,West,263,9.0,14.0,64,0.00,,BKN034,0.00,VWS V14.01,2013-01-20 23:19:00,
2013-01-20 18:25:00,22.7,12.4,30.18,West,275,8.0,14.0,64,0.00,,BKN034,0.00,VWS V14.01,2013-01-20 23:25:00,
2013-01-20 18:30:00,22.7,12.7,30.18,West,271,7.0,14.0,65,0.00,,BKN034,0.00,VWS V14.01,2013-01-20 23:30:00,
2013-01-20 18:35:00,22.7,12.7,30.18,West,271,6.0,11.0,65,0.00,,BKN034,0.00,VWS V14.01,2013-01-20 23:35:00,
2013-01-20 18:41:00,22.6,13.0,30.19,West,276,6.0,11.0,66,0.00,,BKN034,0.00,VWS V14.01,2013-01-20 23:41:00,
2013-01-20 18:46:00,22.6,13.0,30.18,West,267,5.0,11.0,66,0.00,,BKN034,0.00,VWS V14.01,2013-01-20 23:46:00,
2013-01-20 18:51:00,22.6,13.0,30.19,West,276,7.0,11.0,66,0.00,,BKN034,0.00,VWS V14.01,2013-01-20 23:51:00,
2013-01-20 18:57:00,22.5,12.9,30.19,WSW,249,8.0,11.0,66,0.00,,BKN034,0.00,VWS V14.01,2013-01-20 23:57:00,
2013-01-20 19:02:00,22.5,12.9,30.19,WSW,254,6.0,9.0,66,0.00,,OVC120,0.00,VWS V14.01,2013-01-21 00:02:00,
2013-01-20 19:07:00,22.4,12.8,30.19,WNW,284,9.0,9.0,66,0.00,,OVC120,0.00,VWS V14.01,2013-01-21 00:07:00,
2013-01-20 19:13:00,22.3,12.7,30.19,WNW,284,7.0,12.0,66,0.00,,OVC120,0.00,VWS V14.01,2013-01-21 00:13:00,
2013-01-20 19:18:00,22.2,12.9,30.19,West,273,8.0,14.0,67,0.00,,OVC120,0.00,VWS V14.01,2013-01-21 00:18:00,
2013-01-20 19:23:00,22.2,12.9,30.19,West,276,7.0,14.0,67,0.00,,OVC120,0.00,VWS V14.01,2013-01-21 00:23:00,
2013-01-20 19:28:00,22.2,12.9,30.19,West,261,5.0,14.0,67,0.00,,OVC120,0.00,VWS V14.01,2013-01-21 00:28:00,
2013-01-20 19:34:00,22.2,12.9,30.19,West,280,7.0,8.0,67,0.00,,OVC120,0.00,VWS V14.01,2013-01-21 00:34:00,
2013-01-20 19:39:00,22.2,13.3,30.19,West,266,5.0,9.0,68,0.00,,OVC120,0.00,VWS V14.01,2013-01-21 00:39:00,
2013-01-20 19:44:00,22.2,13.3,30.19,WSW,255,4.0,6.0,68,0.00,,,0.00,VWS V14.01,2013-01-21 00:44:00,
2013-01-20 19:50:00,22.2,13.3,30.19,West,259,6.0,9.0,68,0.00,,,0.00,VWS V14.01,2013-01-21 00:50:00,
2013-01-20 19:55:00,22.1,13.2,30.19,West,281,5.0,9.0,68,0.00,,,0.00,VWS V14.01,2013-01-21 00:55:00,
2013-01-20 20:00:00,22.0,13.1,30.19,West,263,7.0,11.0,68,0.00,,SCT034,0.00,VWS V14.01,2013-01-21 01:00:00,
2013-01-20 20:05:00,22.0,13.4,30.19,West,268,3.0,6.0,69,0.00,,SCT034,0.00,VWS V14.01,2013-01-21 01:05:00,
2013-01-20 20:10:00,22.0,13.4,30.19,West,267,4.0,6.0,69,0.00,,SCT034,0.00,VWS V14.01,2013-01-21 01:10:00,
2013-01-20 20:15:00,22.0,13.7,30.19,WSW,258,5.0,8.0,70,0.00,,SCT034,0.00,VWS V14.01,2013-01-21 01:15:00,
2013-01-20 20:21:00,22.0,13.7,30.19,West,280,4.0,8.0,70,0.00,,SCT034,0.00,VWS V14.01,2013-01-21 01:21:00,
2013-01-20 20:26:00,22.0,14.1,30.19,West,275,3.0,8.0,71,0.00,,SCT034,0.00,VWS V14.01,2013-01-21 01:26:00,
2013-01-20 20:31:00,22.0,13.7,30.18,West,260,5.0,8.0,70,0.00,,SCT034,0.00,VWS V14.01,2013-01-21 01:31:00,
2013-01-20 20:37:00,21.9,14.0,30.19,West,262,5.0,8.0,71,0.00,,SCT034,0.00,VWS V14.01,2013-01-21 01:37:00,
2013-01-20 20:42:00,21.9,13.6,30.19,WNW,292,10.0,12.0,70,0.00,,SCT034,0.00,VWS V14.01,2013-01-21 01:42:00,
2013-01-20 20:47:00,21.9,13.0,30.19,WSW,256,7.0,12.0,68,0.00,,SCT034,0.00,VWS V14.01,2013-01-21 01:47:00,
2013-01-20 20:52:00,21.7,13.1,30.19,West,280,7.0,13.0,69,0.00,,SCT034,0.00,VWS V14.01,2013-01-21 01:52:00,
2013-01-20 20:57:00,21.6,13.3,30.19,WNW,294,3.0,13.0,70,0.00,,SCT034,0.00,VWS V14.01,2013-01-21 01:57:00,
2013-01-20 21:03:00,21.6,13.3,30.19,West,277,4.0,6.0,70,0.00,,BKN034,0.00,VWS V14.01,2013-01-21 02:03:00,
2013-01-20 21:08:00,21.5,12.9,30.19,West,278,6.0,10.0,69,0.00,,BKN034,0.00,VWS V14.01,2013-01-21 02:08:00,
2013-01-20 21:13:00,21.5,12.9,30.19,WNW,294,10.0,10.0,69,0.00,,BKN034,0.00,VWS V14.01,2013-01-21 02:13:00,
2013-01-20 21:18:00,21.5,13.2,30.18,West,278,4.0,10.0,70,0.00,,BKN034,0.00,VWS V14.01,2013-01-21 02:18:00,
2013-01-20 21:23:00,21.5,13.2,30.19,WNW,284,2.0,10.0,70,0.00,,BKN034,0.00,VWS V14.01,2013-01-21 02:23:00,
2013-01-20 21:29:00,21.5,13.2,30.19,West,270,4.0,10.0,70,0.00,,BKN034,0.00,VWS V14.01,2013-01-21 02:29:00,
2013-01-20 21:34:00,21.5,13.2,30.19,WNW,290,4.0,5.0,70,0.00,,BKN034,0.00,VWS V14.01,2013-01-21 02:34:00,
2013-01-20 21:39:00,21.5,13.2,30.18,West,263,5.0,8.0,70,0.00,,BKN034,0.00,VWS V14.01,2013-01-21 02:39:00,
2013-01-20 21:44:00,21.3,13.1,30.19,WSW,249,6.0,10.0,70,0.00,,BKN034,0.00,VWS V14.01,2013-01-21 02:44:00,
2013-01-20 21:49:00,21.2,12.6,30.19,WSW,257,8.0,10.0,69,0.00,,BKN034,0.00,VWS V14.01,2013-01-21 02:49:00,
2013-01-20 21:54:00,21.2,12.6,30.18,West,265,5.0,10.0,69,0.00,,BKN034,0.00,VWS V14.01,2013-01-21 02:54:00,
2013-01-20 22:00:00,21.2,13.3,30.19,West,273,2.0,10.0,71,0.00,,BKN034,0.00,VWS V14.01,2013-01-21 03:00:00,
2013-01-20 22:05:00,21.2,13.6,30.19,West,259,0.0,4.0,72,0.00,,BKN032,0.00,VWS V14.01,2013-01-21 03:05:00,
2013-01-20 22:10:00,21.1,13.5,30.19,West,263,2.0,4.0,72,0.00,,BKN032,0.00,VWS V14.01,2013-01-21 03:10:00,
2013-01-20 22:15:00,21.0,13.1,30.19,WNW,293,2.0,8.0,71,0.00,,BKN032,0.00,VWS V14.01,2013-01-21 03:15:00,
2013-01-20 22:20:00,21.0,13.4,30.18,West,262,2.0,8.0,72,0.00,,BKN032,0.00,VWS V14.01,2013-01-21 03:20:00,
2013-01-20 22:26:00,21.0,13.4,30.18,NW,304,5.0,8.0,72,0.00,,BKN032,0.00,VWS V14.01,2013-01-21 03:26:00,
2013-01-20 22:31:00,20.9,13.0,30.18,WNW,296,1.0,8.0,71,0.00,,BKN032,0.00,VWS V14.01,2013-01-21 03:31:00,
2013-01-20 22:36:00,20.8,13.2,30.18,West,281,5.0,8.0,72,0.00,,BKN032,0.00,VWS V14.01,2013-01-21 03:36:00,
2013-01-20 22:41:00,20.8,12.9,30.18,WNW,284,6.0,10.0,71,0.00,,BKN032,0.00,VWS V14.01,2013-01-21 03:41:00,
2013-01-20 22:46:00,20.6,12.7,30.18,West,276,1.0,10.0,71,0.00,,BKN032,0.00,VWS V14.01,2013-01-21 03:46:00,
2013-01-20 22:51:00,20.6,12.7,30.18,West,269,4.0,10.0,71,0.00,,BKN032,0.00,VWS V14.01,2013-01-21 03:51:00,
2013-01-20 22:57:00,20.5,12.9,30.18,NNW,337,2.0,10.0,72,0.00,,BKN032,0.00,VWS V14.01,2013-01-21 03:57:00,
2013-01-20 23:02:00,20.4,12.8,30.18,West,280,2.0,5.0,72,0.00,,OVC030,0.00,VWS V14.01,2013-01-21 04:02:00,
2013-01-20 23:07:00,20.4,12.8,30.18,WNW,290,2.0,5.0,72,0.00,,OVC030,0.00,VWS V14.01,2013-01-21 04:07:00,
2013-01-20 23:12:00,20.2,12.9,30.18,WNW,284,1.0,7.0,73,0.00,,OVC030,0.00,VWS V14.01,2013-01-21 04:12:00,
2013-01-20 23:17:00,20.1,12.9,30.18,WNW,290,2.0,9.0,73,0.00,,OVC030,0.00,VWS V14.01,2013-01-21 04:17:00,
2013-01-20 23:22:00,20.0,12.8,30.18,WNW,284,4.0,9.0,73,0.00,,OVC030,0.00,VWS V14.01,2013-01-21 04:22:00,
2013-01-20 23:27:00,19.8,12.2,30.18,West,268,6.0,11.0,72,0.00,,OVC030,0.00,VWS V14.01,2013-01-21 04:27:00,
2013-01-20 23:33:00,19.8,12.6,30.18,West,260,4.0,6.0,73,0.00,,OVC030,0.00,VWS V14.01,2013-01-21 04:33:00,
2013-01-20 23:38:00,19.7,12.5,30.18,West,267,5.0,7.0,73,0.00,,OVC030,0.00,VWS V14.01,2013-01-21 04:38:00,
2013-01-20 23:43:00,19.7,12.5,30.18,WNW,286,6.0,12.0,73,0.00,,OVC030,0.00,VWS V14.01,2013-01-21 04:43:00,
2013-01-20 23:49:00,19.7,11.8,30.18,West,263,3.0,12.0,71,0.00,,OVC030,0.00,VWS V14.01,2013-01-21 04:49:00,
2013-01-20 23:54:00,19.7,12.5,30.18,West,278,4.0,12.0,73,0.00,,OVC030,0.00,VWS V14.01,2013-01-21 04:54:00,
2013-01-20 23:59:00,19.6,12.7,30.18,WSW,257,0.0,12.0,74,0.00,,OVC030,0.00,VWS V14.01,2013-01-21 04:59:00,